Station Historical Data
Daily Summary for July 21, 2017 Units:  English    Metric   Both
Next Day »
Daily Weekly Monthly Yearly Custom
  High: Low: Average:
Temperature: 84.8 °F 64.0 °F 73.8 °F
Dew Point: 55.3 °F 38.7 °F 47.9 °F
Humidity: 54% 28% 41%
Wind Speed: 12.0mph 0.0mph 2mph
Wind Gust: 14.0mph - -
Wind- - SE
Pressure: 29.97 in 29.90 in -
Precipitation: 0.00 in    
Historical Graphs
 
 
Tabular Data for July 21, 2017
Time Temperature Dew Point Pressure Wind Wind Speed Wind Gust Humidity Rainfall Rate (Hourly) solar Conditions
00:01 69.0 °F 46.8 °F 29.96 in East 5.0 mph 5.0 mph 45% 0.00 in 0.00 W/m2
00:06 69.0 °F 46.8 °F 29.96 in East 2.0 mph 9.0 mph 45% 0.00 in 0.00 W/m2
00:11 68.9 °F 46.7 °F 29.95 in East 4.0 mph 8.0 mph 45% 0.00 in 0.00 W/m2
00:16 68.8 °F 46.6 °F 29.95 in East 5.0 mph 5.0 mph 45% 0.00 in 0.00 W/m2
00:21 68.7 °F 46.5 °F 29.95 in East 9.0 mph 11.0 mph 45% 0.00 in 0.00 W/m2
00:26 68.7 °F 46.5 °F 29.95 in East 2.0 mph 7.0 mph 45% 0.00 in 0.00 W/m2
00:31 68.6 °F 46.4 °F 29.95 in Calm   11.0 mph 45% 0.00 in 0.00 W/m2
00:36 68.6 °F 46.4 °F 29.95 in East 6.0 mph 7.0 mph 45% 0.00 in 0.00 W/m2
00:41 68.5 °F 46.3 °F 29.95 in East 12.0 mph 12.0 mph 45% 0.00 in 0.00 W/m2
00:46 68.5 °F 46.3 °F 29.95 in ESE 7.0 mph 11.0 mph 45% 0.00 in 0.00 W/m2
00:51 68.5 °F 46.3 °F 29.95 in East 6.0 mph 11.0 mph 45% 0.00 in 0.00 W/m2
00:56 68.4 °F 46.2 °F 29.95 in East 8.0 mph 12.0 mph 45% 0.00 in 0.00 W/m2
01:01 68.4 °F 46.2 °F 29.95 in ESE 1.0 mph 7.0 mph 45% 0.00 in 0.00 W/m2
01:06 68.4 °F 46.2 °F 29.95 in East 7.0 mph 13.0 mph 45% 0.00 in 0.00 W/m2
01:11 68.3 °F 46.2 °F 29.95 in Calm   8.0 mph 45% 0.00 in 0.00 W/m2
01:16 68.3 °F 46.2 °F 29.95 in East 7.0 mph 9.0 mph 45% 0.00 in 0.00 W/m2
01:21 68.3 °F 46.2 °F 29.95 in East 6.0 mph 11.0 mph 45% 0.00 in 0.00 W/m2
01:26 68.3 °F 46.2 °F 29.95 in ESE 5.0 mph 9.0 mph 45% 0.00 in 0.00 W/m2
01:31 68.3 °F 46.2 °F 29.95 in ESE 5.0 mph 13.0 mph 45% 0.00 in 0.00 W/m2
01:36 68.2 °F 46.1 °F 29.95 in ESE 5.0 mph 11.0 mph 45% 0.00 in 0.00 W/m2
01:41 68.1 °F 46.0 °F 29.95 in East 2.0 mph 13.0 mph 45% 0.00 in 0.00 W/m2
01:46 68.1 °F 46.0 °F 29.94 in East 7.0 mph 9.0 mph 45% 0.00 in 0.00 W/m2
01:51 68.0 °F 45.9 °F 29.94 in East 2.0 mph 8.0 mph 45% 0.00 in 0.00 W/m2
01:56 67.9 °F 45.8 °F 29.94 in East 7.0 mph 11.0 mph 45% 0.00 in 0.00 W/m2
02:01 67.9 °F 45.8 °F 29.95 in ESE 5.0 mph 9.0 mph 45% 0.00 in 0.00 W/m2
02:06 67.8 °F 45.7 °F 29.94 in Calm   13.0 mph 45% 0.00 in 0.00 W/m2
02:11 67.7 °F 45.0 °F 29.95 in ESE 4.0 mph 9.0 mph 44% 0.00 in 0.00 W/m2
02:16 67.6 °F 44.9 °F 29.94 in East 6.0 mph 14.0 mph 44% 0.00 in 0.00 W/m2
02:21 67.6 °F 45.5 °F 29.94 in ESE 6.0 mph 8.0 mph 45% 0.00 in 0.00 W/m2
02:26 67.6 °F 44.9 °F 29.94 in ESE 12.0 mph 12.0 mph 44% 0.00 in 0.00 W/m2
02:31 67.5 °F 44.8 °F 29.94 in East 6.0 mph 12.0 mph 44% 0.00 in 0.00 W/m2
02:36 67.4 °F 44.8 °F 29.93 in ESE 1.0 mph 9.0 mph 44% 0.00 in 0.00 W/m2
02:42 67.3 °F 45.2 °F 29.93 in ESE 4.0 mph 9.0 mph 45% 0.00 in 0.00 W/m2
02:47 67.2 °F 44.6 °F 29.93 in Calm   7.0 mph 44% 0.00 in 0.00 W/m2
02:52 67.1 °F 44.5 °F 29.93 in ESE 4.0 mph 8.0 mph 44% 0.00 in 0.00 W/m2
02:57 67.1 °F 44.5 °F 29.93 in ESE 6.0 mph 11.0 mph 44% 0.00 in 0.00 W/m2
03:02 67.0 °F 44.4 °F 29.93 in ESE 4.0 mph 11.0 mph 44% 0.00 in 0.00 W/m2
03:07 66.9 °F 44.3 °F 29.93 in ESE 6.0 mph 8.0 mph 44% 0.00 in 0.00 W/m2
03:12 66.8 °F 44.2 °F 29.93 in ESE 4.0 mph 8.0 mph 44% 0.00 in 0.00 W/m2
03:17 66.8 °F 44.2 °F 29.93 in ESE 8.0 mph 11.0 mph 44% 0.00 in 0.00 W/m2
03:22 66.7 °F 44.1 °F 29.93 in ESE 6.0 mph 8.0 mph 44% 0.00 in 0.00 W/m2
03:27 66.6 °F 44.0 °F 29.93 in ESE 5.0 mph 7.0 mph 44% 0.00 in 0.00 W/m2
03:32 66.5 °F 43.9 °F 29.93 in East 5.0 mph 9.0 mph 44% 0.00 in 0.00 W/m2
03:37 66.5 °F 43.9 °F 29.93 in East 6.0 mph 9.0 mph 44% 0.00 in 0.00 W/m2
03:42 66.4 °F 43.8 °F 29.93 in ESE 6.0 mph 7.0 mph 44% 0.00 in 0.00 W/m2
03:47 66.3 °F 43.8 °F 29.93 in ESE 5.0 mph 9.0 mph 44% 0.00 in 0.00 W/m2
03:52 66.2 °F 43.7 °F 29.92 in ESE 5.0 mph 8.0 mph 44% 0.00 in 0.00 W/m2
03:57 66.1 °F 43.6 °F 29.92 in ESE 9.0 mph 11.0 mph 44% 0.00 in 0.00 W/m2
04:02 66.0 °F 42.9 °F 29.93 in East 7.0 mph 11.0 mph 43% 0.00 in 0.00 W/m2
04:07 65.9 °F 43.4 °F 29.93 in East 9.0 mph 9.0 mph 44% 0.00 in 0.00 W/m2
04:12 65.8 °F 42.7 °F 29.93 in East 6.0 mph 12.0 mph 43% 0.00 in 0.00 W/m2
04:17 65.7 °F 43.2 °F 29.93 in ESE 11.0 mph 11.0 mph 44% 0.00 in 0.00 W/m2
04:22 65.6 °F 42.5 °F 29.93 in East 6.0 mph 9.0 mph 43% 0.00 in 0.00 W/m2
04:27 65.5 °F 42.4 °F 29.93 in East 7.0 mph 8.0 mph 43% 0.00 in 0.00 W/m2
04:32 65.4 °F 42.3 °F 29.92 in East 5.0 mph 7.0 mph 43% 0.00 in 0.00 W/m2
04:37 65.4 °F 41.7 °F 29.92 in East 2.0 mph 8.0 mph 42% 0.00 in 0.00 W/m2
04:42 65.3 °F 41.6 °F 29.93 in East 4.0 mph 8.0 mph 42% 0.00 in 0.00 W/m2
04:47 65.3 °F 41.6 °F 29.93 in East 6.0 mph 8.0 mph 42% 0.00 in 0.00 W/m2
04:52 65.2 °F 41.5 °F 29.93 in ESE 6.0 mph 9.0 mph 42% 0.00 in 0.00 W/m2
04:57 65.1 °F 41.5 °F 29.93 in ESE 6.0 mph 8.0 mph 42% 0.00 in 0.00 W/m2
05:02 65.1 °F 41.5 °F 29.93 in ESE 5.0 mph 9.0 mph 42% 0.00 in 0.00 W/m2
05:07 65.0 °F 41.4 °F 29.93 in ESE 7.0 mph 11.0 mph 42% 0.00 in 0.00 W/m2
05:12 64.9 °F 41.3 °F 29.93 in ESE 2.0 mph 8.0 mph 42% 0.00 in 0.00 W/m2
05:17 64.9 °F 41.3 °F 29.93 in ESE 7.0 mph 11.0 mph 42% 0.00 in 0.00 W/m2
05:22 64.9 °F 40.7 °F 29.93 in ESE 5.0 mph 9.0 mph 41% 0.00 in 0.00 W/m2
05:24 64.8 °F 40.6 °F 29.93 in ESE 4.0 mph 9.0 mph 41% 0.00 in 0.00 W/m2
05:28 64.8 °F 40.6 °F 29.93 in ESE 7.0 mph 11.0 mph 41% 0.00 in 0.00 W/m2
05:33 64.7 °F 40.5 °F 29.93 in East 7.0 mph 11.0 mph 41% 0.00 in 0.00 W/m2
05:38 64.7 °F 40.5 °F 29.93 in East 7.0 mph 11.0 mph 41% 0.00 in 0.00 W/m2
05:43 64.6 °F 40.4 °F 29.93 in ESE 9.0 mph 9.0 mph 41% 0.00 in 0.00 W/m2
05:48 64.6 °F 39.8 °F 29.93 in ESE 4.0 mph 11.0 mph 40% 0.00 in 0.00 W/m2
05:53 64.5 °F 39.7 °F 29.93 in ESE 9.0 mph 9.0 mph 40% 0.00 in 5.00 W/m2
05:58 64.5 °F 39.7 °F 29.93 in ESE 6.0 mph 12.0 mph 40% 0.00 in 5.00 W/m2
06:03 64.4 °F 39.6 °F 29.94 in ESE 5.0 mph 12.0 mph 40% 0.00 in 7.00 W/m2
06:08 64.4 °F 38.9 °F 29.94 in ESE 4.0 mph 11.0 mph 39% 0.00 in 11.00 W/m2
06:13 64.4 °F 38.9 °F 29.94 in ESE 4.0 mph 8.0 mph 39% 0.00 in 12.00 W/m2
06:18 64.4 °F 38.9 °F 29.94 in Calm   9.0 mph 39% 0.00 in 14.00 W/m2
06:19 64.3 °F 38.8 °F 29.94 in ESE 2.0 mph 9.0 mph 39% 0.00 in 16.00 W/m2
06:24 64.3 °F 39.5 °F 29.94 in ESE 6.0 mph 9.0 mph 40% 0.00 in 19.00 W/m2
06:29 64.3 °F 39.5 °F 29.94 in ESE 8.0 mph 12.0 mph 40% 0.00 in 26.00 W/m2
06:34 64.2 °F 39.4 °F 29.94 in ESE 7.0 mph 12.0 mph 40% 0.00 in 39.00 W/m2
06:39 64.2 °F 38.8 °F 29.94 in ESE 5.0 mph 11.0 mph 39% 0.00 in 51.00 W/m2
06:44 64.1 °F 38.7 °F 29.94 in East 5.0 mph 12.0 mph 39% 0.00 in 62.00 W/m2
06:49 64.0 °F 39.2 °F 29.94 in ESE 6.0 mph 9.0 mph 40% 0.00 in 79.00 W/m2
06:54 64.0 °F 39.2 °F 29.94 in ESE 7.0 mph 8.0 mph 40% 0.00 in 95.00 W/m2
06:59 64.0 °F 39.8 °F 29.94 in ESE 7.0 mph 8.0 mph 41% 0.00 in 113.00 W/m2
07:04 64.0 °F 39.8 °F 29.94 in Calm   9.0 mph 41% 0.00 in 134.00 W/m2
07:09 64.0 °F 39.8 °F 29.94 in ESE 7.0 mph 11.0 mph 41% 0.00 in 148.00 W/m2
07:14 64.0 °F 39.8 °F 29.95 in ESE 2.0 mph 11.0 mph 41% 0.00 in 167.00 W/m2
07:19 64.0 °F 39.8 °F 29.94 in ESE 4.0 mph 11.0 mph 41% 0.00 in 188.00 W/m2
07:24 64.0 °F 39.8 °F 29.94 in ESE 2.0 mph 9.0 mph 41% 0.00 in 209.00 W/m2
07:29 64.1 °F 40.6 °F 29.95 in East 6.0 mph 9.0 mph 42% 0.00 in 229.00 W/m2
07:34 64.1 °F 40.6 °F 29.95 in Calm   9.0 mph 42% 0.00 in 251.00 W/m2
07:39 64.2 °F 41.3 °F 29.95 in Calm   9.0 mph 43% 0.00 in 271.00 W/m2
07:44 64.3 °F 41.3 °F 29.95 in ESE 5.0 mph 8.0 mph 43% 0.00 in 288.00 W/m2
07:49 64.4 °F 42.0 °F 29.95 in ESE 2.0 mph 9.0 mph 44% 0.00 in 304.00 W/m2
07:54 64.4 °F 42.6 °F 29.95 in ESE 5.0 mph 8.0 mph 45% 0.00 in 320.00 W/m2
07:59 64.5 °F 42.7 °F 29.95 in ESE 1.0 mph 6.0 mph 45% 0.00 in 338.00 W/m2
08:05 64.6 °F 43.4 °F 29.95 in Calm   6.0 mph 46% 0.00 in 355.00 W/m2
08:10 64.7 °F 44.0 °F 29.95 in ESE 4.0 mph 6.0 mph 47% 0.00 in 371.00 W/m2
08:15 64.8 °F 44.1 °F 29.95 in ESE 2.0 mph 5.0 mph 47% 0.00 in 385.00 W/m2
08:20 64.9 °F 44.8 °F 29.95 in Calm   4.0 mph 48% 0.00 in 406.00 W/m2
08:25 65.0 °F 45.4 °F 29.95 in Calm   5.0 mph 49% 0.00 in 420.00 W/m2
08:30 65.2 °F 46.1 °F 29.95 in Calm   5.0 mph 50% 0.00 in 438.00 W/m2
08:35 65.4 °F 46.8 °F 29.95 in Calm   2.0 mph 51% 0.00 in 454.00 W/m2
08:40 65.6 °F 47.0 °F 29.96 in Calm   5.0 mph 51% 0.00 in 466.00 W/m2
08:45 65.8 °F 48.2 °F 29.96 in Calm   2.0 mph 53% 0.00 in 483.00 W/m2
08:50 66.2 °F 48.6 °F 29.95 in Calm     53% 0.00 in 499.00 W/m2
08:55 66.8 °F 49.6 °F 29.95 in Calm     54% 0.00 in 515.00 W/m2
09:00 67.1 °F 49.9 °F 29.95 in Calm     54% 0.00 in 531.00 W/m2
09:05 67.4 °F 50.2 °F 29.95 in Calm     54% 0.00 in 547.00 W/m2
09:10 67.8 °F 49.0 °F 29.95 in Calm     51% 0.00 in 561.00 W/m2
09:15 68.1 °F 46.6 °F 29.95 in Calm     46% 0.00 in 577.00 W/m2
09:20 68.7 °F 46.5 °F 29.95 in Calm     45% 0.00 in 591.00 W/m2
09:25 69.5 °F 46.7 °F 29.95 in Calm     44% 0.00 in 605.00 W/m2
09:30 70.2 °F 48.5 °F 29.95 in Calm     46% 0.00 in 617.00 W/m2
09:35 70.8 °F 47.8 °F 29.95 in Calm     44% 0.00 in 631.00 W/m2
09:40 71.6 °F 48.6 °F 29.95 in Calm     44% 0.00 in 643.00 W/m2
09:43 72.0 °F 49.5 °F 29.96 in ESE 2.0 mph 6.0 mph 45% 0.00 in 654.00 W/m2
09:48 72.4 °F 49.3 °F 29.95 in Calm   2.0 mph 44% 0.00 in 668.00 W/m2
09:53 72.9 °F 49.1 °F 29.95 in Calm   4.0 mph 43% 0.00 in 682.00 W/m2
09:58 73.1 °F 48.0 °F 29.96 in Calm   5.0 mph 41% 0.00 in 694.00 W/m2
10:03 73.4 °F 46.3 °F 29.96 in Calm   2.0 mph 38% 0.00 in 708.00 W/m2
10:08 73.7 °F 47.2 °F 29.96 in Calm   1.0 mph 39% 0.00 in 721.00 W/m2
10:09 73.7 °F 47.2 °F 29.96 in Calm   1.0 mph 39% 0.00 in 721.00 W/m2
10:14 73.9 °F 48.1 °F 29.96 in East 4.0 mph 4.0 mph 40% 0.00 in 731.00 W/m2
10:19 74.2 °F 47.7 °F 29.96 in Calm   1.0 mph 39% 0.00 in 742.00 W/m2
10:24 74.4 °F 47.2 °F 29.96 in Calm     38% 0.00 in 754.00 W/m2
10:29 74.7 °F 48.1 °F 29.96 in Calm   2.0 mph 39% 0.00 in 766.00 W/m2
10:34 74.9 °F 47.6 °F 29.96 in Calm   2.0 mph 38% 0.00 in 779.00 W/m2
10:39 75.2 °F 47.9 °F 29.97 in Calm   3.0 mph 38% 0.00 in 789.00 W/m2
10:44 75.6 °F 48.9 °F 29.97 in Calm   3.0 mph 39% 0.00 in 800.00 W/m2
10:49 76.0 °F 50.0 °F 29.97 in Calm   5.0 mph 40% 0.00 in 810.00 W/m2
10:54 76.4 °F 49.6 °F 29.96 in Calm   4.0 mph 39% 0.00 in 819.00 W/m2
10:59 76.7 °F 49.2 °F 29.97 in Calm   2.0 mph 38% 0.00 in 826.00 W/m2
11:04 77.0 °F 48.0 °F 29.96 in Calm   3.0 mph 36% 0.00 in 837.00 W/m2
11:09 77.3 °F 48.3 °F 29.96 in Calm   6.0 mph 36% 0.00 in 847.00 W/m2
11:14 77.6 °F 48.6 °F 29.96 in Calm   5.0 mph 36% 0.00 in 853.00 W/m2
11:19 77.9 °F 48.8 °F 29.97 in Calm   2.0 mph 36% 0.00 in 861.00 W/m2
11:24 78.2 °F 50.5 °F 29.97 in Calm   5.0 mph 38% 0.00 in 870.00 W/m2
11:29 78.4 °F 50.7 °F 29.96 in WNW 1.0 mph 5.0 mph 38% 0.00 in 877.00 W/m2
11:34 78.6 °F 50.2 °F 29.96 in Calm   3.0 mph 37% 0.00 in 882.00 W/m2
11:39 78.9 °F 50.4 °F 29.96 in Calm   5.0 mph 37% 0.00 in 889.00 W/m2
11:44 79.1 °F 50.6 °F 29.96 in Calm   5.0 mph 37% 0.00 in 898.00 W/m2
11:49 79.3 °F 50.8 °F 29.96 in Calm   1.0 mph 37% 0.00 in 905.00 W/m2
11:54 79.5 °F 49.5 °F 29.96 in WNW 1.0 mph 4.0 mph 35% 0.00 in 907.00 W/m2
11:59 79.9 °F 48.3 °F 29.96 in Calm   2.0 mph 33% 0.00 in 912.00 W/m2
12:04 80.2 °F 50.1 °F 29.95 in West 3.0 mph 4.0 mph 35% 0.00 in 918.00 W/m2
12:09 80.5 °F 49.6 °F 29.95 in Calm   4.0 mph 34% 0.00 in 926.00 W/m2
12:14 80.8 °F 49.0 °F 29.95 in West 1.0 mph 3.0 mph 33% 0.00 in 925.00 W/m2
12:19 81.2 °F 50.2 °F 29.95 in Calm   6.0 mph 34% 0.00 in 930.00 W/m2
12:24 81.6 °F 50.5 °F 29.95 in Calm   1.0 mph 34% 0.00 in 937.00 W/m2
12:30 81.8 °F 49.9 °F 29.95 in Calm   7.0 mph 33% 0.00 in 937.00 W/m2
12:35 81.8 °F 50.7 °F 29.95 in Calm   3.0 mph 34% 0.00 in 933.00 W/m2
12:40 81.8 °F 49.9 °F 29.95 in West 5.0 mph 5.0 mph 33% 0.00 in 944.00 W/m2
12:45 82.0 °F 50.9 °F 29.95 in Calm   6.0 mph 34% 0.00 in 944.00 W/m2
12:50 82.4 °F 51.2 °F 29.95 in Calm   5.0 mph 34% 0.00 in 947.00 W/m2
12:55 82.9 °F 50.9 °F 29.95 in West 6.0 mph 7.0 mph 33% 0.00 in 944.00 W/m2
13:00 83.5 °F 50.6 °F 29.95 in Calm   1.0 mph 32% 0.00 in 940.00 W/m2
13:05 83.9 °F 51.8 °F 29.95 in Calm   4.0 mph 33% 0.00 in 944.00 W/m2
13:10 83.8 °F 50.8 °F 29.95 in Calm   2.0 mph 32% 0.00 in 947.00 W/m2
13:15 83.9 °F 50.9 °F 29.94 in Calm   8.0 mph 32% 0.00 in 847.00 W/m2
13:20 83.7 °F 50.7 °F 29.94 in Calm   5.0 mph 32% 0.00 in 940.00 W/m2
13:25 83.7 °F 50.7 °F 29.94 in Calm   7.0 mph 32% 0.00 in 939.00 W/m2
13:30 83.9 °F 51.8 °F 29.94 in Calm   6.0 mph 33% 0.00 in 933.00 W/m2
13:35 83.8 °F 50.8 °F 29.94 in Calm   1.0 mph 32% 0.00 in 933.00 W/m2
13:40 83.8 °F 50.0 °F 29.94 in WNW 2.0 mph 6.0 mph 31% 0.00 in 937.00 W/m2
13:45 83.7 °F 50.7 °F 29.94 in Calm   4.0 mph 32% 0.00 in 937.00 W/m2
13:50 83.8 °F 50.0 °F 29.94 in Calm   4.0 mph 31% 0.00 in 926.00 W/m2
13:55 83.9 °F 50.9 °F 29.94 in WNW 2.0 mph 7.0 mph 32% 0.00 in 926.00 W/m2
14:00 84.2 °F 49.4 °F 29.93 in Calm   4.0 mph 30% 0.00 in 926.00 W/m2
14:05 84.5 °F 50.6 °F 29.93 in Calm   4.0 mph 31% 0.00 in 923.00 W/m2
14:10 84.5 °F 51.4 °F 29.93 in Calm   6.0 mph 32% 0.00 in 918.00 W/m2
14:15 84.5 °F 48.8 °F 29.93 in Calm   1.0 mph 29% 0.00 in 911.00 W/m2
14:20 84.7 °F 50.8 °F 29.93 in West 5.0 mph 5.0 mph 31% 0.00 in 904.00 W/m2
14:25 84.8 °F 50.8 °F 29.93 in Calm   6.0 mph 31% 0.00 in 891.00 W/m2
14:30 84.5 °F 49.7 °F 29.93 in Calm   7.0 mph 30% 0.00 in 891.00 W/m2
14:35 84.2 °F 49.4 °F 29.93 in Calm   5.0 mph 30% 0.00 in 884.00 W/m2
14:40 84.1 °F 50.2 °F 29.93 in NW 1.0 mph 8.0 mph 31% 0.00 in 877.00 W/m2
14:45 84.1 °F 49.3 °F 29.93 in WNW 4.0 mph 8.0 mph 30% 0.00 in 872.00 W/m2
14:50 84.2 °F 48.5 °F 29.93 in Calm   8.0 mph 29% 0.00 in 863.00 W/m2
14:55 84.6 °F 49.8 °F 29.93 in Calm   5.0 mph 30% 0.00 in 856.00 W/m2
15:00 84.4 °F 49.6 °F 29.93 in Calm   5.0 mph 30% 0.00 in 847.00 W/m2
15:05 84.3 °F 50.4 °F 29.92 in Calm   6.0 mph 31% 0.00 in 838.00 W/m2
15:10 84.3 °F 50.4 °F 29.92 in Calm   7.0 mph 31% 0.00 in 833.00 W/m2
15:15 84.3 °F 48.6 °F 29.92 in Calm   3.0 mph 29% 0.00 in 821.00 W/m2
15:20 84.4 °F 49.6 °F 29.92 in Calm   7.0 mph 30% 0.00 in 812.00 W/m2
15:25 84.3 °F 49.5 °F 29.92 in Calm   4.0 mph 30% 0.00 in 807.00 W/m2
15:30 84.2 °F 49.4 °F 29.92 in Calm   4.0 mph 30% 0.00 in 793.00 W/m2
15:35 84.1 °F 50.2 °F 29.92 in West 4.0 mph 6.0 mph 31% 0.00 in 780.00 W/m2
15:40 84.2 °F 49.4 °F 29.92 in Calm   7.0 mph 30% 0.00 in 772.00 W/m2
15:42 84.2 °F 49.4 °F 29.92 in West 4.0 mph 4.0 mph 30% 0.00 in 772.00 W/m2
15:47 84.3 °F 49.5 °F 29.92 in Calm   1.0 mph 30% 0.00 in 754.00 W/m2
15:52 84.4 °F 49.6 °F 29.92 in Calm   3.0 mph 30% 0.00 in 745.00 W/m2
15:57 84.4 °F 49.6 °F 29.92 in Calm   1.0 mph 30% 0.00 in 733.00 W/m2
16:02 84.3 °F 48.6 °F 29.92 in West 4.0 mph 7.0 mph 29% 0.00 in 719.00 W/m2
16:07 84.4 °F 47.8 °F 29.92 in Calm   3.0 mph 28% 0.00 in 707.00 W/m2
16:08 84.4 °F 47.8 °F 29.92 in Calm   3.0 mph 28% 0.00 in 701.00 W/m2
16:13 84.5 °F 49.7 °F 29.91 in NW 3.0 mph 7.0 mph 30% 0.00 in 693.00 W/m2
16:18 84.3 °F 48.6 °F 29.91 in Calm   6.0 mph 29% 0.00 in 680.00 W/m2
16:23 84.2 °F 49.4 °F 29.91 in Calm   7.0 mph 30% 0.00 in 664.00 W/m2
16:28 84.1 °F 48.5 °F 29.91 in Calm   5.0 mph 29% 0.00 in 652.00 W/m2
16:34 84.2 °F 49.4 °F 29.91 in Calm   1.0 mph 30% 0.00 in 640.00 W/m2
16:38 84.3 °F 48.6 °F 29.91 in West 5.0 mph 8.0 mph 29% 0.00 in 626.00 W/m2
16:44 84.5 °F 48.8 °F 29.91 in Calm   1.0 mph 29% 0.00 in 610.00 W/m2
16:49 84.6 °F 50.7 °F 29.91 in WSW 1.0 mph 6.0 mph 31% 0.00 in 596.00 W/m2
16:54 84.7 °F 49.0 °F 29.91 in Calm   2.0 mph 29% 0.00 in 580.00 W/m2
16:59 84.7 °F 49.9 °F 29.91 in West 3.0 mph 3.0 mph 30% 0.00 in 564.00 W/m2
17:04 84.6 °F 49.8 °F 29.91 in WNW 2.0 mph 6.0 mph 30% 0.00 in 552.00 W/m2
17:09 84.6 °F 49.8 °F 29.91 in Calm   7.0 mph 30% 0.00 in 534.00 W/m2
17:14 84.4 °F 49.6 °F 29.91 in Calm   6.0 mph 30% 0.00 in 522.00 W/m2
17:19 84.4 °F 49.6 °F 29.91 in Calm   2.0 mph 30% 0.00 in 506.00 W/m2
17:24 84.4 °F 49.6 °F 29.90 in West 1.0 mph 5.0 mph 30% 0.00 in 492.00 W/m2
17:29 84.3 °F 49.5 °F 29.90 in WNW 1.0 mph 5.0 mph 30% 0.00 in 476.00 W/m2
17:34 84.3 °F 50.4 °F 29.90 in WNW 3.0 mph 3.0 mph 31% 0.00 in 459.00 W/m2
17:35 84.2 °F 50.3 °F 29.90 in Calm   3.0 mph 31% 0.00 in 455.00 W/m2
17:40 84.2 °F 49.4 °F 29.90 in Calm   4.0 mph 30% 0.00 in 443.00 W/m2
17:45 83.9 °F 50.1 °F 29.90 in Calm   6.0 mph 31% 0.00 in 427.00 W/m2
17:50 83.8 °F 50.8 °F 29.90 in Calm   4.0 mph 32% 0.00 in 411.00 W/m2
17:55 83.6 °F 50.7 °F 29.90 in Calm   2.0 mph 32% 0.00 in 396.00 W/m2
18:00 83.5 °F 50.6 °F 29.90 in Calm   4.0 mph 32% 0.00 in 378.00 W/m2
18:05 83.4 °F 49.6 °F 29.90 in Calm   3.0 mph 31% 0.00 in 364.00 W/m2
18:10 83.3 °F 50.4 °F 29.90 in Calm   5.0 mph 32% 0.00 in 346.00 W/m2
18:15 83.2 °F 51.1 °F 29.90 in Calm   1.0 mph 33% 0.00 in 330.00 W/m2
18:20 83.1 °F 51.9 °F 29.90 in Calm   3.0 mph 34% 0.00 in 316.00 W/m2
18:25 83.0 °F 51.8 °F 29.90 in Calm   2.0 mph 34% 0.00 in 299.00 W/m2
18:30 82.8 °F 52.4 °F 29.90 in Calm   1.0 mph 35% 0.00 in 283.00 W/m2
18:35 82.7 °F 53.1 °F 29.90 in Calm   1.0 mph 36% 0.00 in 267.00 W/m2
18:40 82.6 °F 53.0 °F 29.90 in West 1.0 mph 4.0 mph 36% 0.00 in 250.00 W/m2
18:45 82.4 °F 53.5 °F 29.90 in Calm   2.0 mph 37% 0.00 in 234.00 W/m2
18:50 82.3 °F 52.7 °F 29.90 in Calm   4.0 mph 36% 0.00 in 220.00 W/m2
18:55 82.2 °F 54.1 °F 29.90 in Calm   1.0 mph 38% 0.00 in 200.00 W/m2
19:00 81.8 °F 53.7 °F 29.90 in Calm   2.0 mph 38% 0.00 in 190.00 W/m2
19:05 81.5 °F 54.2 °F 29.90 in Calm   1.0 mph 39% 0.00 in 172.00 W/m2
19:10 81.1 °F 54.5 °F 29.90 in Calm   4.0 mph 40% 0.00 in 156.00 W/m2
19:15 80.7 °F 54.2 °F 29.90 in Calm   1.0 mph 40% 0.00 in 134.00 W/m2
19:20 80.1 °F 53.6 °F 29.90 in Calm   1.0 mph 40% 0.00 in 114.00 W/m2
19:25 79.8 °F 54.0 °F 29.90 in Calm     41% 0.00 in 97.00 W/m2
19:30 79.5 °F 54.4 °F 29.90 in Calm     42% 0.00 in 79.00 W/m2
19:35 79.3 °F 54.2 °F 29.90 in Calm   1.0 mph 42% 0.00 in 63.00 W/m2
19:40 78.9 °F 55.2 °F 29.90 in Calm   1.0 mph 44% 0.00 in 53.00 W/m2
19:45 78.4 °F 55.3 °F 29.90 in Calm   1.0 mph 45% 0.00 in 40.00 W/m2
19:50 78.0 °F 54.3 °F 29.90 in Calm   1.0 mph 44% 0.00 in 30.00 W/m2
19:55 77.7 °F 54.7 °F 29.90 in Calm   3.0 mph 45% 0.00 in 21.00 W/m2
20:00 77.3 °F 54.9 °F 29.90 in Calm   1.0 mph 46% 0.00 in 16.00 W/m2
20:05 76.7 °F 55.0 °F 29.90 in Calm   3.0 mph 47% 0.00 in 14.00 W/m2
20:10 76.2 °F 54.5 °F 29.90 in WNW 3.0 mph 3.0 mph 47% 0.00 in 12.00 W/m2
20:15 75.8 °F 54.7 °F 29.90 in WNW 2.0 mph 2.0 mph 48% 0.00 in 9.00 W/m2
20:20 75.3 °F 54.3 °F 29.90 in Calm   3.0 mph 48% 0.00 in 7.00 W/m2
20:25 74.8 °F 54.4 °F 29.90 in Calm   3.0 mph 49% 0.00 in 5.00 W/m2
20:30 74.4 °F 54.0 °F 29.90 in Calm   3.0 mph 49% 0.00 in 0.00 W/m2
20:35 74.0 °F 53.7 °F 29.91 in Calm   1.0 mph 49% 0.00 in 0.00 W/m2
20:40 73.7 °F 53.9 °F 29.91 in Calm   3.0 mph 50% 0.00 in 0.00 W/m2
20:45 73.4 °F 53.7 °F 29.91 in Calm   1.0 mph 50% 0.00 in 0.00 W/m2
20:50 73.2 °F 53.5 °F 29.91 in Calm   1.0 mph 50% 0.00 in 0.00 W/m2
20:55 73.0 °F 53.3 °F 29.91 in Calm     50% 0.00 in 0.00 W/m2
21:00 72.8 °F 53.1 °F 29.91 in Calm   1.0 mph 50% 0.00 in 0.00 W/m2
21:05 72.7 °F 53.0 °F 29.91 in Calm     50% 0.00 in 0.00 W/m2
21:10 72.6 °F 52.9 °F 29.91 in Calm   1.0 mph 50% 0.00 in 0.00 W/m2
21:16 72.4 °F 52.7 °F 29.91 in Calm   1.0 mph 50% 0.00 in 0.00 W/m2
21:21 72.3 °F 52.6 °F 29.91 in Calm     50% 0.00 in 0.00 W/m2
21:26 72.1 °F 52.5 °F 29.91 in Calm   1.0 mph 50% 0.00 in 0.00 W/m2
21:31 71.9 °F 52.3 °F 29.92 in Calm   1.0 mph 50% 0.00 in 0.00 W/m2
21:36 71.8 °F 52.2 °F 29.92 in Calm     50% 0.00 in 0.00 W/m2
21:41 71.7 °F 52.1 °F 29.92 in Calm     50% 0.00 in 0.00 W/m2
21:46 71.6 °F 52.0 °F 29.92 in Calm     50% 0.00 in 0.00 W/m2
21:51 71.5 °F 51.4 °F 29.92 in Calm     49% 0.00 in 0.00 W/m2
21:56 71.4 °F 51.3 °F 29.92 in Calm     49% 0.00 in 0.00 W/m2
22:01 71.3 °F 51.2 °F 29.92 in Calm     49% 0.00 in 0.00 W/m2
22:06 71.3 °F 51.2 °F 29.92 in Calm     49% 0.00 in 0.00 W/m2
22:11 71.1 °F 51.0 °F 29.92 in Calm     49% 0.00 in 0.00 W/m2
22:16 71.0 °F 50.9 °F 29.93 in Calm     49% 0.00 in 0.00 W/m2
22:21 71.0 °F 50.9 °F 29.92 in Calm     49% 0.00 in 0.00 W/m2
22:26 71.0 °F 50.9 °F 29.92 in Calm     49% 0.00 in 0.00 W/m2
22:31 70.9 °F 50.8 °F 29.92 in Calm     49% 0.00 in 0.00 W/m2
22:36 70.8 °F 50.7 °F 29.92 in Calm     49% 0.00 in 0.00 W/m2
22:41 70.8 °F 50.7 °F 29.92 in Calm     49% 0.00 in 0.00 W/m2
22:46 70.6 °F 50.5 °F 29.92 in Calm     49% 0.00 in 0.00 W/m2
22:51 70.6 °F 50.5 °F 29.92 in Calm     49% 0.00 in 0.00 W/m2
22:56 70.5 °F 51.0 °F 29.92 in Calm     50% 0.00 in 0.00 W/m2
23:01 70.4 °F 50.9 °F 29.92 in Calm     50% 0.00 in 0.00 W/m2
23:06 70.4 °F 50.9 °F 29.92 in Calm     50% 0.00 in 0.00 W/m2
23:11 70.3 °F 50.8 °F 29.92 in Calm     50% 0.00 in 0.00 W/m2
23:16 70.3 °F 50.8 °F 29.92 in Calm     50% 0.00 in 0.00 W/m2
23:21 70.2 °F 50.7 °F 29.91 in Calm     50% 0.00 in 0.00 W/m2
23:26 70.1 °F 50.6 °F 29.91 in Calm     50% 0.00 in 0.00 W/m2
23:31 70.1 °F 50.6 °F 29.91 in WNW 2.0 mph 3.0 mph 50% 0.00 in 0.00 W/m2
23:36 70.0 °F 50.5 °F 29.91 in WNW 3.0 mph 5.0 mph 50% 0.00 in 0.00 W/m2
23:41 69.9 °F 50.4 °F 29.91 in WNW 2.0 mph 4.0 mph 50% 0.00 in 0.00 W/m2
23:46 69.8 °F 50.9 °F 29.91 in NE 3.0 mph 7.0 mph 51% 0.00 in 0.00 W/m2
23:51 69.7 °F 50.8 °F 29.91 in NE 4.0 mph 4.0 mph 51% 0.00 in 0.00 W/m2
23:56 69.7 °F 50.8 °F 29.91 in NE 4.0 mph 6.0 mph 51% 0.00 in 0.00 W/m2
Foresthill Weather
 WU-history PHP script courtesy of   Juneau County Weather.
powered by Cumulus v1.9.3 (1059)
Ambient Weather VWS v14.00
Top Contact Website Map Copyright © 2007 - 2018 Foresthillweather.com Never base important decisions on this or any weather information obtained from the Internet